Weather History for KLMT - November, 2012

Change the Weather History Date:

Friday, November 30, 2012

  Actual Average Record
Temperature  
Mean Temperature 45 °F 31 °F  
Max Temperature 51 °F 40 °F 58 °F (1995)
Min Temperature 38 °F 22 °F 2 °F (1985)
Degree Days  
Heating Degree Days 20 34  
Month to date heating degree days 767 887  
Since 1 July heating degree days 1470 1802  
Cooling Degree Days 0 0  
Month to date cooling degree days 0 0  
Year to date cooling degree days 177 169  
Moisture  
Dew Point 38 °F    
Average Humidity 80    
Maximum Humidity 100    
Minimum Humidity 56    
Precipitation  
Precipitation 0.46 in 0.09 in 0.49 in (2005)
Month to date precipitation 1.43 2.19  
Year to date precipitation 8.11 13.51  
Sea Level Pressure  
Sea Level Pressure 29.62 in    
Wind  
Wind Speed 11 mph (SSW)    
Max Wind Speed 30 mph    
Max Gust Speed 40 mph    
Visibility 9 miles    
Events Rain    
T = Trace of Precipitation, MM = Missing Value Source: NWS Daily Summary

Daily Weather History Graph

Daily Weather History Graph

Search for Another Location

Airport or City:

Trip Planner

Search our weather history database for the weather conditions in past years. The results will help you decide how hot, cold, wet, or windy it might be!

Date:

Astronomy

Nov. 30, 2012 Rise Set
Actual Time 7:15 AM PST 4:36 PM PST
Civil Twilight 6:44 AM PST 5:07 PM PST
Nautical Twilight 6:09 AM PST 5:42 PM PST
Astronomical Twilight 5:35 AM PST 6:15 PM PST
Moon 6:36 PM PST (11/30) 8:51 AM PST (11/30)
Length of Visible Light 10h 23m
Length of Day
9h 20m
Waning Gibbous, 96% of the Moon is Illuminated
Nov 30
Waning Gibbous
Dec 6
Last Quarter
Dec 13
New
Dec 19
First Quarter
Dec 28
Full

Hourly Weather History & Observations

Time (PST) Temp. Windchill Dew Point Humidity Pressure Visibility Wind Dir Wind Speed Gust Speed Precip Events Conditions
12:53 AM 43.0 °F 37.7 °F 41.0 °F 93% 29.57 in 10.0 mi SE 9.2 mph - 0.21 in Rain Light Rain
1:02 AM 42.8 °F 38.0 °F 41.0 °F 93% 29.59 in 10.0 mi SE 8.1 mph - 0.01 in Rain Light Rain
1:53 AM 43.0 °F 38.2 °F 41.0 °F 93% 29.55 in 10.0 mi South 8.1 mph - 0.01 in   Overcast
2:53 AM 45.0 °F 40.1 °F 42.1 °F 90% 29.56 in 5.0 mi SW 9.2 mph - 0.06 in Rain Rain
3:03 AM 44.6 °F 41.4 °F 42.8 °F 93% 29.59 in 3.0 mi West 5.8 mph - 0.04 in Rain Rain
3:35 AM 42.8 °F 34.8 °F 39.2 °F 87% 29.59 in 6.0 mi WSW 17.3 mph 28.8 mph 0.15 in Rain Rain
3:53 AM 43.0 °F 36.8 °F 39.0 °F 86% 29.56 in 7.0 mi SW 11.5 mph - 0.19 in Rain Light Rain
4:53 AM 44.1 °F 35.9 °F 39.0 °F 82% 29.55 in 10.0 mi SW 19.6 mph - 0.02 in   Overcast
5:53 AM 44.1 °F 37.7 °F 37.0 °F 76% 29.57 in 10.0 mi WSW 12.7 mph - N/A   Mostly Cloudy
6:00 AM 44.6 °F 42.2 °F 37.4 °F 76% 29.60 in 10.0 mi West 4.6 mph - N/A   Mostly Cloudy
6:53 AM 44.1 °F 39.0 °F 37.9 °F 79% 29.60 in 10.0 mi SSE 9.2 mph - N/A   Mostly Cloudy
7:53 AM 42.1 °F 39.2 °F 39.0 °F 89% 29.62 in 10.0 mi SSW 4.6 mph - N/A   Overcast
8:53 AM 42.1 °F 36.6 °F 39.0 °F 89% 29.63 in 10.0 mi South 9.2 mph - N/A   Mostly Cloudy
9:53 AM 44.6 °F 38.4 °F 39.2 °F 81% 29.63 in 10.0 mi SSE 12.7 mph - N/A   Mostly Cloudy
10:53 AM 46.0 °F 41.0 °F 39.0 °F 76% 29.65 in 10.0 mi South 10.4 mph - N/A   Overcast
11:53 AM 46.9 °F - 39.9 °F 77% 29.64 in 10.0 mi SSE 8.1 mph - N/A   Overcast
12:53 PM 51.1 °F - 37.9 °F 61% 29.64 in 10.0 mi SSW 12.7 mph 18.4 mph N/A   Mostly Cloudy
1:53 PM 48.0 °F - 39.0 °F 71% 29.64 in 10.0 mi South 8.1 mph - N/A   Mostly Cloudy
2:53 PM 48.0 °F - 37.9 °F 68% 29.62 in 10.0 mi South 6.9 mph - N/A   Scattered Clouds
3:53 PM 48.0 °F - 33.1 °F 56% 29.65 in 10.0 mi SSW 16.1 mph - N/A   Mostly Cloudy
4:53 PM 45.0 °F 38.5 °F 32.0 °F 60% 29.66 in 10.0 mi South 13.8 mph - N/A   Mostly Cloudy
5:53 PM 45.0 °F 38.2 °F 34.0 °F 65% 29.66 in 7.0 mi South 15.0 mph - N/A   Mostly Cloudy
7:53 PM 39.0 °F 32.3 °F 35.1 °F 86% 29.68 in 7.0 mi SSE 10.4 mph - N/A   Mostly Cloudy
8:53 PM 41.0 °F 33.9 °F 35.1 °F 79% 29.69 in 7.0 mi South 12.7 mph - N/A   Mostly Cloudy
9:53 PM 41.0 °F 32.5 °F 35.1 °F 79% 29.69 in 7.0 mi South 17.3 mph 25.3 mph N/A   Mostly Cloudy
10:53 PM 41.0 °F 33.1 °F 35.1 °F 79% 29.69 in 10.0 mi South 15.0 mph - N/A   Scattered Clouds
11:53 PM 39.9 °F 33.9 °F 35.1 °F 83% 29.70 in 10.0 mi South 9.2 mph - N/A   Mostly Cloudy